Quantico, VA

3:36 AM EDT on March 27, 2017 (GMT -0400)
Quantico Marine Corps Air Facility

Weather History for KNYG - October, 2011

Change the Weather History Date:

Friday, October 21, 2011

  Actual Average Record
Temperature  
Mean Temperature 56 °F -  
Max Temperature 64 °F 62 °F 77 °F (2003)
Min Temperature 48 °F 44 °F 39 °F (1996)
Degree Days  
Heating Degree Days 9    
Growing Degree Days 6 (Base 50)    
Moisture  
Dew Point 40 °F    
Average Humidity 56    
Maximum Humidity 74    
Minimum Humidity 41    
Precipitation  
Precipitation 0.00 in - - ()
Sea Level Pressure  
Sea Level Pressure 30.02 in    
Wind  
Wind Speed 8 mph (NW)    
Max Wind Speed 12 mph    
Max Gust Speed -    
Visibility 10 miles    
Events      
Averages and records for this station are not official NWS values.
T = Trace of Precipitation, MM = Missing Value Source: NWS Daily Summary

Daily Weather History Graph

Daily Weather History Graph

Search for Another Location

Airport or City:

Trip Planner

Search our weather history database for the weather conditions in past years. The results will help you decide how hot, cold, wet, or windy it might be!

Date:

Astronomy

Oct. 21, 2011 Rise Set
Actual Time 7:23 AM EDT 6:23 PM EDT
Civil Twilight 6:57 AM EDT 6:50 PM EDT
Nautical Twilight 6:26 AM EDT 7:20 PM EDT
Astronomical Twilight 5:55 AM EDT 7:51 PM EDT
Moon 1:16 AM EDT (10/21) 3:02 PM EDT (10/21)
Length of Visible Light 11h 53m
Length of Day
10h 59m
Waning Crescent, 34% of the Moon is Illuminated
Oct 21
Waning Crescent
Oct 26
New
Nov 2
First Quarter
Nov 10
Full
Nov 18
Last Quarter

Hourly Weather History & Observations

Time (EDT) Temp. Dew Point Humidity Pressure Visibility Wind Dir Wind Speed Gust Speed Precip Events Conditions
12:56 AM 52.0 °F 39.0 °F 61% 29.86 in 10.0 mi WSW 6.9 mph - N/A   Clear
1:56 AM 51.1 °F 39.0 °F 63% 29.88 in 10.0 mi WSW 5.8 mph - N/A   Clear
2:56 AM 50.0 °F 39.9 °F 68% 29.89 in 10.0 mi WSW 6.9 mph - N/A   Clear
3:56 AM 48.9 °F 39.0 °F 69% 29.90 in 10.0 mi West 9.2 mph - N/A   Clear
4:56 AM 48.9 °F 39.0 °F 69% 29.92 in 10.0 mi WSW 11.5 mph - N/A   Clear
5:56 AM 48.9 °F 39.0 °F 69% 29.95 in 10.0 mi West 10.4 mph - N/A   Clear
6:56 AM 48.0 °F 39.0 °F 71% 29.96 in 10.0 mi West 9.2 mph - N/A   Clear
7:56 AM 48.0 °F 39.9 °F 74% 29.99 in 10.0 mi NW 9.2 mph - N/A   Partly Cloudy
8:56 AM 51.1 °F 41.0 °F 68% 30.02 in 10.0 mi WNW 9.2 mph - N/A   Clear
9:56 AM 55.9 °F 41.0 °F 57% 30.03 in 10.0 mi WNW 8.1 mph - N/A   Clear
10:56 AM 60.1 °F 39.0 °F 46% 30.04 in 10.0 mi WNW 9.2 mph - N/A   Clear
11:56 AM 61.0 °F 37.9 °F 42% 30.04 in 10.0 mi WNW 6.9 mph - N/A   Partly Cloudy
12:56 PM 63.0 °F 39.0 °F 41% 30.03 in 10.0 mi NW 4.6 mph - N/A   Scattered Clouds
1:56 PM 63.0 °F 39.0 °F 41% 30.03 in 10.0 mi NNW 8.1 mph - N/A   Clear
2:56 PM 64.0 °F 39.9 °F 41% 30.02 in 10.0 mi North 6.9 mph - N/A   Scattered Clouds
3:56 PM 62.1 °F 39.9 °F 44% 30.03 in 10.0 mi NNW 6.9 mph - N/A   Scattered Clouds
4:56 PM 61.0 °F 39.9 °F 46% 30.04 in 10.0 mi North 8.1 mph - N/A   Overcast
5:56 PM 60.1 °F 41.0 °F 49% 30.06 in 10.0 mi North 8.1 mph - N/A   Overcast
6:56 PM 57.9 °F 41.0 °F 53% 30.08 in 10.0 mi North 8.1 mph - N/A   Overcast
7:56 PM 57.0 °F 41.0 °F 55% 30.10 in 10.0 mi North 8.1 mph - N/A   Overcast
8:56 PM 57.0 °F 41.0 °F 55% 30.12 in 10.0 mi North 6.9 mph - N/A   Overcast
9:56 PM 55.0 °F 39.9 °F 57% 30.13 in 10.0 mi North 9.2 mph - N/A   Mostly Cloudy
10:56 PM 55.0 °F 39.9 °F 57% 30.14 in 10.0 mi North 8.1 mph - N/A   Overcast
11:56 PM 54.0 °F 39.9 °F 59% 30.13 in 10.0 mi North 6.9 mph - N/A   Overcast